Вернуться в каталог

STARLINK-35787

АктивенСвязьVLEO
NORAD 66978·PAYLOAD·🇺🇸 United States

Запущен Dec 8, 2025 с Cape Canaveral Space Force Station

Loading…

Ближайшие Пролёты (ближайшие 24 часа)

TLE

СвежийSource: CelesTrak SupGP

Эпоха: Sep 15, 2026, 03:49 UTC

1 66978C 25288V   26258.15951389  .00003313  00000+0  11999-3 0  2584
2 66978  43.0011  33.1497 0001568 267.7828 234.3770 15.27575440    11

Отслеживайте STARLINK-35787 в реальном времени с AllMySat

Download on the App Store